Location: DARK SKY Beskydy - Park tmavé oblohy, www.darkskybeskydy.cz
(49.4926°N, 18.5016°E)
Time: 17:41:49
(UTC+02:00)

ACS3 Solar Sail - Pass Details

Date: 19 June 2024
Orbit: 992 x 1023 km, 97.4° (Epoch: 12 July)

Event Time Altitude Azimuth Distance (km) Brightness Sun altitude
Exits shadow 21:31:16 - 146° (SE) 3,180 6.8 -5.0°
Reaches altitude 10° 21:32:23 10° 143° (SE) 2,765 6.5 -5.2°
Maximum altitude 21:38:24 53° 69° (ENE) 1,214 5.2 -5.8°
Drops below altitude 10° 21:44:24 10° 355° (N) 2,769 8.1 -6.5°
Sets 21:46:56 0° 351° (N) 3,721 9.0 -6.8°
